Year,Month,Day,Hour,Minute,Value (Times are PST for temperature in C)
2017,05,16,00,00,6.50
2017,05,16,00,01,6.40
2017,05,16,00,02,6.40
2017,05,16,00,03,6.40
2017,05,16,00,04,6.40
2017,05,16,00,05,6.40
2017,05,16,00,06,6.40
2017,05,16,00,07,6.40
2017,05,16,00,08,6.40
2017,05,16,00,09,6.40
2017,05,16,00,10,6.40
2017,05,16,00,11,6.40
2017,05,16,00,12,6.40
2017,05,16,00,13,6.40
2017,05,16,00,14,6.40
2017,05,16,00,15,6.40
2017,05,16,00,16,6.40
2017,05,16,00,17,6.40
2017,05,16,00,18,6.40
2017,05,16,00,19,6.40
2017,05,16,00,20,6.40
2017,05,16,00,21,6.40
2017,05,16,00,22,6.40
2017,05,16,00,23,6.40
2017,05,16,00,24,6.40
2017,05,16,00,25,6.40
2017,05,16,00,26,6.30
2017,05,16,00,27,6.30
2017,05,16,00,28,6.30
2017,05,16,00,29,6.30
2017,05,16,00,30,6.30
2017,05,16,00,31,6.30
2017,05,16,00,32,6.30
2017,05,16,00,33,6.30
2017,05,16,00,34,6.30
2017,05,16,00,35,6.30
2017,05,16,00,36,6.30
2017,05,16,00,37,6.30
2017,05,16,00,38,6.30
2017,05,16,00,39,6.30
2017,05,16,00,40,6.30
2017,05,16,00,41,6.30
2017,05,16,00,42,6.30
2017,05,16,00,43,6.30
2017,05,16,00,44,6.30
2017,05,16,00,45,6.30
2017,05,16,00,46,6.30
2017,05,16,00,47,6.30
2017,05,16,00,48,6.30
2017,05,16,00,49,6.30
2017,05,16,00,50,6.30
2017,05,16,00,51,6.30
2017,05,16,00,52,6.30
2017,05,16,00,53,6.20
2017,05,16,00,54,6.20
2017,05,16,00,55,6.20
2017,05,16,00,56,6.20
2017,05,16,00,57,6.20
2017,05,16,00,58,6.20
2017,05,16,00,59,6.20
2017,05,16,01,00,6.20
2017,05,16,01,01,6.20
2017,05,16,01,02,6.20
2017,05,16,01,03,6.20
2017,05,16,01,04,6.20
2017,05,16,01,05,6.20
2017,05,16,01,06,6.20
2017,05,16,01,07,6.20
2017,05,16,01,08,6.20
2017,05,16,01,09,6.20
2017,05,16,01,10,6.20
2017,05,16,01,11,6.20
2017,05,16,01,12,6.10
2017,05,16,01,13,6.20
2017,05,16,01,14,6.10
2017,05,16,01,15,6.10
2017,05,16,01,16,6.20
2017,05,16,01,17,6.20
2017,05,16,01,18,6.20
2017,05,16,01,19,6.20
2017,05,16,01,20,6.20
2017,05,16,01,21,6.20
2017,05,16,01,22,6.20
2017,05,16,01,23,6.20
2017,05,16,01,24,6.20
2017,05,16,01,25,6.20
2017,05,16,01,26,6.20
2017,05,16,01,27,6.20
2017,05,16,01,28,6.20
2017,05,16,01,29,6.20
2017,05,16,01,30,6.20
2017,05,16,01,31,6.20
2017,05,16,01,32,6.20
2017,05,16,01,33,6.20
2017,05,16,01,34,6.20
2017,05,16,01,35,6.20
2017,05,16,01,36,6.20
2017,05,16,01,37,6.20
2017,05,16,01,38,6.20
2017,05,16,01,39,6.20
2017,05,16,01,40,6.20
2017,05,16,01,41,6.20
2017,05,16,01,42,6.20
2017,05,16,01,43,6.10
2017,05,16,01,44,6.10
2017,05,16,01,45,6.10
2017,05,16,01,46,6.10
2017,05,16,01,47,6.10
2017,05,16,01,48,6.10
2017,05,16,01,49,6.10
2017,05,16,01,50,6.10
2017,05,16,01,51,6.10
2017,05,16,01,52,6.10
2017,05,16,01,53,6.10
2017,05,16,01,54,6.10
2017,05,16,01,55,6.10
2017,05,16,01,56,6.10
2017,05,16,01,57,6.10
2017,05,16,01,58,6.10
2017,05,16,01,59,6.10
2017,05,16,02,00,6.10
2017,05,16,02,01,6.10
2017,05,16,02,02,6.10
2017,05,16,02,03,6.10
2017,05,16,02,04,6.10
2017,05,16,02,05,6.10
2017,05,16,02,06,6.10
2017,05,16,02,07,6.10
2017,05,16,02,08,6.10
2017,05,16,02,09,6.00
2017,05,16,02,10,6.00
2017,05,16,02,11,6.00
2017,05,16,02,12,6.00
2017,05,16,02,13,6.00
2017,05,16,02,14,5.90
2017,05,16,02,15,5.90
2017,05,16,02,16,5.90
2017,05,16,02,17,5.90
2017,05,16,02,18,5.90
2017,05,16,02,19,5.90
2017,05,16,02,20,5.90
2017,05,16,02,21,5.80
2017,05,16,02,22,5.80
2017,05,16,02,23,5.80
2017,05,16,02,24,5.80
2017,05,16,02,25,5.80
2017,05,16,02,26,5.80
2017,05,16,02,27,5.80
2017,05,16,02,28,5.80
2017,05,16,02,29,5.80
2017,05,16,02,30,5.80
2017,05,16,02,31,5.80
2017,05,16,02,32,5.80
2017,05,16,02,33,5.80
2017,05,16,02,34,5.80
2017,05,16,02,35,5.80
2017,05,16,02,36,5.80
2017,05,16,02,37,5.80
2017,05,16,02,38,5.80
2017,05,16,02,39,5.80
2017,05,16,02,40,5.80
2017,05,16,02,41,5.80
2017,05,16,02,42,5.80
2017,05,16,02,43,5.80
2017,05,16,02,44,5.90
2017,05,16,02,45,5.90
2017,05,16,02,46,5.90
2017,05,16,02,47,5.90
2017,05,16,02,48,6.00
2017,05,16,02,49,6.00
2017,05,16,02,50,6.10
2017,05,16,02,51,6.10
2017,05,16,02,52,6.10
2017,05,16,02,53,6.10
2017,05,16,02,54,6.10
2017,05,16,02,55,6.20
2017,05,16,02,56,6.20
2017,05,16,02,57,6.20
2017,05,16,02,58,6.20
2017,05,16,02,59,6.20
2017,05,16,03,00,6.20
2017,05,16,03,01,6.20
2017,05,16,03,02,6.20
2017,05,16,03,03,6.20
2017,05,16,03,04,6.10
2017,05,16,03,05,6.10
2017,05,16,03,06,6.10
2017,05,16,03,07,6.10
2017,05,16,03,08,6.10
2017,05,16,03,09,6.10
2017,05,16,03,10,6.10
2017,05,16,03,11,6.10
2017,05,16,03,12,6.10
2017,05,16,03,13,6.10
2017,05,16,03,14,6.10
2017,05,16,03,15,6.10
2017,05,16,03,16,6.10
2017,05,16,03,17,6.10
2017,05,16,03,18,6.10
2017,05,16,03,19,6.10
2017,05,16,03,20,6.10
2017,05,16,03,21,6.10
2017,05,16,03,22,6.10
2017,05,16,03,23,6.10
2017,05,16,03,24,6.10
2017,05,16,03,25,6.10
2017,05,16,03,26,6.10
2017,05,16,03,27,6.10
2017,05,16,03,28,6.00
2017,05,16,03,29,6.00
2017,05,16,03,30,6.00
2017,05,16,03,31,6.00
2017,05,16,03,32,6.00
2017,05,16,03,33,6.00
2017,05,16,03,34,6.00
2017,05,16,03,35,6.00
2017,05,16,03,36,6.00
2017,05,16,03,37,6.00
2017,05,16,03,38,5.90
2017,05,16,03,39,5.90
2017,05,16,03,40,5.90
2017,05,16,03,41,5.90
2017,05,16,03,42,5.90
2017,05,16,03,43,5.90
2017,05,16,03,44,5.90
2017,05,16,03,45,5.90
2017,05,16,03,46,5.90
2017,05,16,03,47,5.90
2017,05,16,03,48,5.90
2017,05,16,03,49,5.90
2017,05,16,03,50,5.90
2017,05,16,03,51,5.90
2017,05,16,03,52,5.90
2017,05,16,03,53,5.90
2017,05,16,03,54,5.90
2017,05,16,03,55,5.80
2017,05,16,03,56,5.80
2017,05,16,03,57,5.80
2017,05,16,03,58,5.80
2017,05,16,03,59,5.80
2017,05,16,04,00,5.80
2017,05,16,04,01,5.80
2017,05,16,04,02,5.80
2017,05,16,04,03,5.80
2017,05,16,04,04,5.80
2017,05,16,04,05,5.70
2017,05,16,04,06,5.70
2017,05,16,04,07,5.70
2017,05,16,04,08,5.70
2017,05,16,04,09,5.70
2017,05,16,04,10,5.70
2017,05,16,04,11,5.70
2017,05,16,04,12,5.70
2017,05,16,04,13,5.70
2017,05,16,04,14,5.70
2017,05,16,04,15,5.70
2017,05,16,04,16,5.70
2017,05,16,04,17,5.70
2017,05,16,04,18,5.60
2017,05,16,04,19,5.60
2017,05,16,04,20,5.60
2017,05,16,04,21,5.60
2017,05,16,04,22,5.60
2017,05,16,04,23,5.60
2017,05,16,04,24,5.60
2017,05,16,04,25,5.60
2017,05,16,04,26,5.60
2017,05,16,04,27,5.60
2017,05,16,04,28,5.60
2017,05,16,04,29,5.50
2017,05,16,04,30,5.50
2017,05,16,04,31,5.50
2017,05,16,04,32,5.40
2017,05,16,04,33,5.40
2017,05,16,04,34,5.40
2017,05,16,04,35,5.40
2017,05,16,04,36,5.30
2017,05,16,04,37,5.30
2017,05,16,04,38,5.30
2017,05,16,04,39,5.30
2017,05,16,04,40,5.30
2017,05,16,04,41,5.30
2017,05,16,04,42,5.30
2017,05,16,04,43,5.20
2017,05,16,04,44,5.20
2017,05,16,04,45,5.20
2017,05,16,04,46,5.20
2017,05,16,04,47,5.20
2017,05,16,04,48,5.20
2017,05,16,04,49,5.20
2017,05,16,04,50,5.20
2017,05,16,04,51,5.20
2017,05,16,04,52,5.20
2017,05,16,04,53,5.20
2017,05,16,04,54,5.20
2017,05,16,04,55,5.20
2017,05,16,04,56,5.20
2017,05,16,04,57,5.20
2017,05,16,04,58,5.20
2017,05,16,04,59,5.20
2017,05,16,05,00,5.20
2017,05,16,05,01,5.20
2017,05,16,05,02,5.10
2017,05,16,05,03,5.10
2017,05,16,05,04,5.10
2017,05,16,05,05,5.10
2017,05,16,05,06,5.10
2017,05,16,05,07,5.10
2017,05,16,05,08,5.10
2017,05,16,05,09,5.00
2017,05,16,05,10,5.00
2017,05,16,05,11,5.00
2017,05,16,05,12,4.90
2017,05,16,05,13,4.80
2017,05,16,05,14,4.80
2017,05,16,05,15,4.80
2017,05,16,05,16,4.70
2017,05,16,05,17,4.70
2017,05,16,05,18,4.70
2017,05,16,05,19,4.70
2017,05,16,05,20,4.70
2017,05,16,05,21,4.60
2017,05,16,05,22,4.60
2017,05,16,05,23,4.60
2017,05,16,05,24,4.70
2017,05,16,05,25,4.60
2017,05,16,05,26,4.60
2017,05,16,05,27,4.60
2017,05,16,05,28,4.60
2017,05,16,05,29,4.60
2017,05,16,05,30,4.60
2017,05,16,05,31,4.60
2017,05,16,05,32,4.60
2017,05,16,05,33,4.60
2017,05,16,05,34,4.60
2017,05,16,05,35,4.60
2017,05,16,05,36,4.60
2017,05,16,05,37,4.60
2017,05,16,05,38,4.60
2017,05,16,05,39,4.50
2017,05,16,05,40,4.50
2017,05,16,05,41,4.50
2017,05,16,05,42,4.50
2017,05,16,05,43,4.50
2017,05,16,05,44,4.50
2017,05,16,05,45,4.50
2017,05,16,05,46,4.50
2017,05,16,05,47,4.40
2017,05,16,05,48,4.40
2017,05,16,05,49,4.40
2017,05,16,05,50,4.40
2017,05,16,05,51,4.40
2017,05,16,05,52,4.40
2017,05,16,05,53,4.40
2017,05,16,05,54,4.40
2017,05,16,05,55,4.40
2017,05,16,05,56,4.40
2017,05,16,05,57,4.40
2017,05,16,05,58,4.40
2017,05,16,05,59,4.40
2017,05,16,06,00,4.40
2017,05,16,06,01,4.40
2017,05,16,06,02,4.40
2017,05,16,06,03,4.40
2017,05,16,06,04,4.40
2017,05,16,06,05,4.40
2017,05,16,06,06,4.40
2017,05,16,06,07,4.40
2017,05,16,06,08,4.40
2017,05,16,06,09,4.40
2017,05,16,06,10,4.40
2017,05,16,06,11,4.40
2017,05,16,06,12,4.40
2017,05,16,06,13,4.40
2017,05,16,06,14,4.40
2017,05,16,06,15,4.40
2017,05,16,06,16,4.40
2017,05,16,06,17,4.40
2017,05,16,06,18,4.40
2017,05,16,06,19,4.40
2017,05,16,06,20,4.40
2017,05,16,06,21,4.40
2017,05,16,06,22,4.40
2017,05,16,06,23,4.40
2017,05,16,06,24,4.40
2017,05,16,06,25,4.40
2017,05,16,06,26,4.40
2017,05,16,06,27,4.40
2017,05,16,06,28,4.40
2017,05,16,06,29,4.40
2017,05,16,06,30,4.50
2017,05,16,06,31,4.50
2017,05,16,06,32,4.50
2017,05,16,06,33,4.50
2017,05,16,06,34,4.50
2017,05,16,06,35,4.50
2017,05,16,06,36,4.50
2017,05,16,06,37,4.50
2017,05,16,06,38,4.50
2017,05,16,06,39,4.50
2017,05,16,06,40,4.50
2017,05,16,06,41,4.50
2017,05,16,06,42,4.50
2017,05,16,06,43,4.50
2017,05,16,06,44,4.60
2017,05,16,06,45,4.50
2017,05,16,06,46,4.60
2017,05,16,06,47,4.60
2017,05,16,06,48,4.60
2017,05,16,06,49,4.60
2017,05,16,06,50,4.50
2017,05,16,06,51,4.50
2017,05,16,06,52,4.50
2017,05,16,06,53,4.50
2017,05,16,06,54,4.50
2017,05,16,06,55,4.50
2017,05,16,06,56,4.50
2017,05,16,06,57,4.50
2017,05,16,06,58,4.50
2017,05,16,06,59,4.50
2017,05,16,07,00,4.50
2017,05,16,07,01,4.50
2017,05,16,07,02,4.50
2017,05,16,07,03,4.40
2017,05,16,07,04,4.40
2017,05,16,07,05,4.40
2017,05,16,07,06,4.40
2017,05,16,07,07,4.40
2017,05,16,07,08,4.50
2017,05,16,07,09,4.40
2017,05,16,07,10,4.50
2017,05,16,07,11,4.40
2017,05,16,07,12,4.40
2017,05,16,07,13,4.40
2017,05,16,07,14,4.40
2017,05,16,07,15,4.50
2017,05,16,07,16,4.50
2017,05,16,07,17,4.50
2017,05,16,07,18,4.50
2017,05,16,07,19,4.50
2017,05,16,07,20,4.50
2017,05,16,07,21,4.50
2017,05,16,07,22,4.50
2017,05,16,07,23,4.50
2017,05,16,07,24,4.50
2017,05,16,07,25,4.50
2017,05,16,07,26,4.60
2017,05,16,07,27,4.60
2017,05,16,07,28,4.60
2017,05,16,07,29,4.60
2017,05,16,07,30,4.60
2017,05,16,07,31,4.70
2017,05,16,07,32,4.70
2017,05,16,07,33,4.70
2017,05,16,07,34,4.70
2017,05,16,07,35,4.70
2017,05,16,07,36,4.70
2017,05,16,07,37,4.70
2017,05,16,07,38,4.70
2017,05,16,07,39,4.80
2017,05,16,07,40,4.80
2017,05,16,07,41,4.80
2017,05,16,07,42,4.80
2017,05,16,07,43,4.80
2017,05,16,07,44,4.80
2017,05,16,07,45,4.80
2017,05,16,07,46,4.80
2017,05,16,07,47,4.80
2017,05,16,07,48,4.80
2017,05,16,07,49,4.80
2017,05,16,07,50,4.80
2017,05,16,07,51,4.80
2017,05,16,07,52,4.90
2017,05,16,07,53,4.90
2017,05,16,07,54,4.90
2017,05,16,07,55,4.90
2017,05,16,07,56,4.90
2017,05,16,07,57,4.90
2017,05,16,07,58,4.90
2017,05,16,07,59,4.90
2017,05,16,08,00,5.00
2017,05,16,08,01,5.00
2017,05,16,08,02,5.00
2017,05,16,08,03,5.00
2017,05,16,08,04,5.10
2017,05,16,08,05,5.10
2017,05,16,08,06,5.10
2017,05,16,08,07,5.10
2017,05,16,08,08,5.10
2017,05,16,08,09,5.10
2017,05,16,08,10,5.20
2017,05,16,08,11,5.20
2017,05,16,08,12,5.30
2017,05,16,08,13,5.30
2017,05,16,08,14,5.30
2017,05,16,08,15,5.30
2017,05,16,08,16,5.30
2017,05,16,08,17,5.30
2017,05,16,08,18,5.30
2017,05,16,08,19,5.30
2017,05,16,08,20,5.30
2017,05,16,08,21,5.30
2017,05,16,08,22,5.40
2017,05,16,08,23,5.40
2017,05,16,08,24,5.40
2017,05,16,08,25,5.40
2017,05,16,08,26,5.50
2017,05,16,08,27,5.50
2017,05,16,08,28,5.60
2017,05,16,08,29,5.60
2017,05,16,08,30,5.60
2017,05,16,08,31,5.60
2017,05,16,08,32,5.60
2017,05,16,08,33,5.60
2017,05,16,08,34,5.50
2017,05,16,08,35,5.60
2017,05,16,08,36,5.60
2017,05,16,08,37,5.60
2017,05,16,08,38,5.60
2017,05,16,08,39,5.60
2017,05,16,08,40,5.70
2017,05,16,08,41,5.70
2017,05,16,08,42,5.70
2017,05,16,08,43,5.70
2017,05,16,08,44,5.70
2017,05,16,08,45,5.80
2017,05,16,08,46,5.70
2017,05,16,08,47,5.70
2017,05,16,08,48,5.70
2017,05,16,08,49,5.70
2017,05,16,08,50,5.70
2017,05,16,08,51,5.80
2017,05,16,08,52,5.80
2017,05,16,08,53,5.80
2017,05,16,08,54,5.80
2017,05,16,08,55,5.90
2017,05,16,08,56,6.00
2017,05,16,08,57,6.00
2017,05,16,08,58,6.10
2017,05,16,08,59,6.10
2017,05,16,09,00,6.20
2017,05,16,09,01,6.20
2017,05,16,09,02,6.30
2017,05,16,09,03,6.30
2017,05,16,09,04,6.30
2017,05,16,09,05,6.40
2017,05,16,09,06,6.50
2017,05,16,09,07,6.50
2017,05,16,09,08,6.70
2017,05,16,09,09,6.80
2017,05,16,09,10,6.90
2017,05,16,09,11,7.00
2017,05,16,09,12,7.00
2017,05,16,09,13,7.00
2017,05,16,09,14,6.90
2017,05,16,09,15,6.90
2017,05,16,09,16,6.90
2017,05,16,09,17,6.80
2017,05,16,09,18,6.80
2017,05,16,09,19,6.80
2017,05,16,09,20,6.80
2017,05,16,09,21,6.80
2017,05,16,09,22,6.80
2017,05,16,09,23,6.80
2017,05,16,09,24,6.80
2017,05,16,09,25,6.80
2017,05,16,09,26,6.80
2017,05,16,09,27,6.80
2017,05,16,09,28,6.80
2017,05,16,09,29,6.80
2017,05,16,09,30,6.90
2017,05,16,09,31,7.00
2017,05,16,09,32,7.10
2017,05,16,09,33,7.20
2017,05,16,09,34,7.20
2017,05,16,09,35,7.30
2017,05,16,09,36,7.30
2017,05,16,09,37,7.30
2017,05,16,09,38,7.40
2017,05,16,09,39,7.50
2017,05,16,09,40,7.40
2017,05,16,09,41,7.40
2017,05,16,09,42,7.50
2017,05,16,09,43,7.50
2017,05,16,09,44,7.60
2017,05,16,09,45,7.60
2017,05,16,09,46,7.70
2017,05,16,09,47,7.70
2017,05,16,09,48,7.60
2017,05,16,09,49,7.70
2017,05,16,09,50,7.70
2017,05,16,09,51,7.70
2017,05,16,09,52,7.80
2017,05,16,09,53,7.90
2017,05,16,09,54,7.90
2017,05,16,09,55,8.00
2017,05,16,09,56,8.10
2017,05,16,09,57,8.20
2017,05,16,09,58,8.30
2017,05,16,09,59,8.30
2017,05,16,10,00,8.40
2017,05,16,10,01,8.40
2017,05,16,10,02,8.40
2017,05,16,10,03,8.40
2017,05,16,10,04,8.30
2017,05,16,10,05,8.30
2017,05,16,10,06,8.20
2017,05,16,10,07,8.10
2017,05,16,10,08,8.10
2017,05,16,10,09,8.10
2017,05,16,10,10,8.10
2017,05,16,10,11,8.10
2017,05,16,10,12,8.20
2017,05,16,10,13,8.30
2017,05,16,10,14,8.40
2017,05,16,10,15,8.40
2017,05,16,10,16,8.50
2017,05,16,10,17,8.40
2017,05,16,10,18,8.40
2017,05,16,10,19,8.30
2017,05,16,10,20,8.30
2017,05,16,10,21,8.30
2017,05,16,10,22,8.30
2017,05,16,10,23,8.40
2017,05,16,10,24,8.50
2017,05,16,10,25,8.60
2017,05,16,10,26,8.60
2017,05,16,10,27,8.70
2017,05,16,10,28,8.70
2017,05,16,10,29,8.70
2017,05,16,10,30,8.70
2017,05,16,10,31,8.70
2017,05,16,10,32,8.80
2017,05,16,10,33,8.80
2017,05,16,10,34,8.80
2017,05,16,10,35,8.80
2017,05,16,10,36,8.80
2017,05,16,10,37,8.80
2017,05,16,10,38,8.80
2017,05,16,10,39,8.80
2017,05,16,10,40,8.80
2017,05,16,10,41,8.80
2017,05,16,10,42,8.80
2017,05,16,10,43,8.70
2017,05,16,10,44,8.70
2017,05,16,10,45,8.70
2017,05,16,10,46,8.80
2017,05,16,10,47,8.80
2017,05,16,10,48,8.80
2017,05,16,10,49,8.90
2017,05,16,10,50,8.90
2017,05,16,10,51,8.90
2017,05,16,10,52,8.90
2017,05,16,10,53,8.90
2017,05,16,10,54,8.90
2017,05,16,10,55,8.90
2017,05,16,10,56,8.90
2017,05,16,10,57,8.90
2017,05,16,10,58,9.00
2017,05,16,10,59,9.00
2017,05,16,11,00,8.90
2017,05,16,11,01,8.90
2017,05,16,11,02,8.90
2017,05,16,11,03,8.90
2017,05,16,11,04,8.90
2017,05,16,11,05,8.90
2017,05,16,11,06,9.10
2017,05,16,11,07,9.20
2017,05,16,11,08,9.30
2017,05,16,11,09,9.40
2017,05,16,11,10,9.50
2017,05,16,11,11,9.40
2017,05,16,11,12,9.40
2017,05,16,11,13,9.30
2017,05,16,11,14,9.40
2017,05,16,11,15,9.50
2017,05,16,11,16,9.60
2017,05,16,11,17,9.60
2017,05,16,11,18,9.70
2017,05,16,11,19,9.70
2017,05,16,11,20,9.70
2017,05,16,11,21,9.60
2017,05,16,11,22,9.60
2017,05,16,11,23,9.70
2017,05,16,11,24,9.70
2017,05,16,11,25,9.70
2017,05,16,11,26,9.90
2017,05,16,11,27,9.90
2017,05,16,11,28,10.10
2017,05,16,11,29,10.20
2017,05,16,11,30,10.20
2017,05,16,11,31,10.30
2017,05,16,11,32,10.30
2017,05,16,11,33,10.40
2017,05,16,11,34,10.50
2017,05,16,11,35,10.50
2017,05,16,11,36,10.40
2017,05,16,11,37,10.40
2017,05,16,11,38,10.30
2017,05,16,11,39,10.40
2017,05,16,11,40,10.40
2017,05,16,11,41,10.30
2017,05,16,11,42,10.20
2017,05,16,11,43,10.00
2017,05,16,11,44,9.90
2017,05,16,11,45,9.80
2017,05,16,11,46,9.80
2017,05,16,11,47,9.90
2017,05,16,11,48,10.00
2017,05,16,11,49,10.10
2017,05,16,11,50,10.20
2017,05,16,11,51,10.20
2017,05,16,11,52,10.20
2017,05,16,11,53,10.20
2017,05,16,11,54,10.20
2017,05,16,11,55,10.20
2017,05,16,11,56,10.20
2017,05,16,11,57,10.20
2017,05,16,11,58,10.20
2017,05,16,11,59,10.10
2017,05,16,12,00,10.00
2017,05,16,12,01,10.00
2017,05,16,12,02,10.00
2017,05,16,12,03,10.00
2017,05,16,12,04,10.10
2017,05,16,12,05,10.10
2017,05,16,12,06,10.10
2017,05,16,12,07,10.20
2017,05,16,12,08,10.30
2017,05,16,12,09,10.30
2017,05,16,12,10,10.30
2017,05,16,12,11,10.30
2017,05,16,12,12,10.30
2017,05,16,12,13,10.40
2017,05,16,12,14,10.50
2017,05,16,12,15,10.60
2017,05,16,12,16,10.50
2017,05,16,12,17,10.50
2017,05,16,12,18,10.60
2017,05,16,12,19,10.60
2017,05,16,12,20,10.80
2017,05,16,12,21,10.90
2017,05,16,12,22,11.00
2017,05,16,12,23,11.10
2017,05,16,12,24,11.10
2017,05,16,12,25,11.10
2017,05,16,12,26,11.10
2017,05,16,12,27,11.10
2017,05,16,12,28,11.10
2017,05,16,12,29,11.20
2017,05,16,12,30,11.20
2017,05,16,12,31,11.30
2017,05,16,12,32,11.40
2017,05,16,12,33,11.40
2017,05,16,12,34,11.40
2017,05,16,12,35,11.40
2017,05,16,12,36,11.50
2017,05,16,12,37,11.50
2017,05,16,12,38,11.50
2017,05,16,12,39,11.60
2017,05,16,12,40,11.60
2017,05,16,12,41,11.60
2017,05,16,12,42,11.60
2017,05,16,12,43,11.50
2017,05,16,12,44,11.30
2017,05,16,12,45,11.20
2017,05,16,12,46,11.10
2017,05,16,12,47,11.00
2017,05,16,12,48,10.90
2017,05,16,12,49,10.80
2017,05,16,12,50,10.80
2017,05,16,12,51,11.00
2017,05,16,12,52,11.10
2017,05,16,12,53,11.20
2017,05,16,12,54,11.20
2017,05,16,12,55,11.20
2017,05,16,12,56,11.30
2017,05,16,12,57,11.30
2017,05,16,12,58,11.30
2017,05,16,12,59,11.30
2017,05,16,13,00,11.30
2017,05,16,13,01,11.20
2017,05,16,13,02,11.20
2017,05,16,13,03,11.10
2017,05,16,13,04,11.10
2017,05,16,13,05,11.00
2017,05,16,13,06,11.00
2017,05,16,13,07,10.90
2017,05,16,13,08,10.90
2017,05,16,13,09,10.90
2017,05,16,13,10,10.90
2017,05,16,13,11,11.00
2017,05,16,13,12,11.10
2017,05,16,13,13,11.20
2017,05,16,13,14,11.40
2017,05,16,13,15,11.50
2017,05,16,13,16,11.60
2017,05,16,13,17,11.70
2017,05,16,13,18,11.70
2017,05,16,13,19,11.70
2017,05,16,13,20,11.70
2017,05,16,13,21,11.80
2017,05,16,13,22,11.80
2017,05,16,13,23,11.80
2017,05,16,13,24,11.70
2017,05,16,13,25,11.70
2017,05,16,13,26,11.80
2017,05,16,13,27,11.80
2017,05,16,13,28,11.60
2017,05,16,13,29,11.50
2017,05,16,13,30,11.40
2017,05,16,13,31,11.30
2017,05,16,13,32,11.20
2017,05,16,13,33,11.10
2017,05,16,13,34,11.10
2017,05,16,13,35,11.10
2017,05,16,13,36,11.10
2017,05,16,13,37,11.10
2017,05,16,13,38,11.10
2017,05,16,13,39,11.20
2017,05,16,13,40,11.20
2017,05,16,13,41,11.20
2017,05,16,13,42,11.20
2017,05,16,13,43,11.20
2017,05,16,13,44,11.20
2017,05,16,13,45,11.30
2017,05,16,13,46,11.40
2017,05,16,13,47,11.40
2017,05,16,13,48,11.40
2017,05,16,13,49,11.40
2017,05,16,13,50,11.30
2017,05,16,13,51,11.30
2017,05,16,13,52,11.30
2017,05,16,13,53,11.30
2017,05,16,13,54,11.30
2017,05,16,13,55,11.30
2017,05,16,13,56,11.40
2017,05,16,13,57,11.50
2017,05,16,13,58,11.50
2017,05,16,13,59,11.50
2017,05,16,14,00,11.40
2017,05,16,14,01,11.30
2017,05,16,14,02,11.30
2017,05,16,14,03,11.30
2017,05,16,14,04,11.30
2017,05,16,14,05,11.30
2017,05,16,14,06,11.20
2017,05,16,14,07,11.10
2017,05,16,14,08,11.10
2017,05,16,14,09,11.20
2017,05,16,14,10,11.20
2017,05,16,14,11,11.30
2017,05,16,14,12,11.30
2017,05,16,14,13,11.40
2017,05,16,14,14,11.50
2017,05,16,14,15,11.60
2017,05,16,14,16,11.60
2017,05,16,14,17,11.50
2017,05,16,14,18,11.30
2017,05,16,14,19,11.30
2017,05,16,14,20,11.20
2017,05,16,14,21,11.30
2017,05,16,14,22,11.20
2017,05,16,14,23,11.20
2017,05,16,14,24,11.20
2017,05,16,14,25,11.20
2017,05,16,14,26,11.30
2017,05,16,14,27,11.30
2017,05,16,14,28,11.30
2017,05,16,14,29,11.30
2017,05,16,14,30,11.30
2017,05,16,14,31,11.30
2017,05,16,14,32,11.30
2017,05,16,14,33,11.30
2017,05,16,14,34,11.30
2017,05,16,14,35,11.40
2017,05,16,14,36,11.40
2017,05,16,14,37,11.40
2017,05,16,14,38,11.30
2017,05,16,14,39,11.30
2017,05,16,14,40,11.30
2017,05,16,14,41,11.30
2017,05,16,14,42,11.30
2017,05,16,14,43,11.30
2017,05,16,14,44,11.30
2017,05,16,14,45,11.30
2017,05,16,14,46,11.30
2017,05,16,14,47,11.30
2017,05,16,14,48,11.30
2017,05,16,14,49,11.20
2017,05,16,14,50,11.10
2017,05,16,14,51,11.00
2017,05,16,14,52,11.00
2017,05,16,14,53,11.00
2017,05,16,14,54,10.90
2017,05,16,14,55,10.90
2017,05,16,14,56,11.00
2017,05,16,14,57,11.00
2017,05,16,14,58,11.00
2017,05,16,14,59,11.10
2017,05,16,15,00,11.10
2017,05,16,15,01,11.20
2017,05,16,15,02,11.30
2017,05,16,15,03,11.30
2017,05,16,15,04,11.50
2017,05,16,15,05,11.60
2017,05,16,15,06,11.60
2017,05,16,15,07,11.50
2017,05,16,15,08,11.50
2017,05,16,15,09,11.50
2017,05,16,15,10,11.40
2017,05,16,15,11,11.40
2017,05,16,15,12,11.50
2017,05,16,15,13,11.50
2017,05,16,15,14,11.60
2017,05,16,15,15,11.60
2017,05,16,15,16,11.70
2017,05,16,15,17,11.80
2017,05,16,15,18,11.90
2017,05,16,15,19,12.00
2017,05,16,15,20,12.00
2017,05,16,15,21,12.10
2017,05,16,15,22,12.20
2017,05,16,15,23,12.20
2017,05,16,15,24,12.30
2017,05,16,15,25,12.40
2017,05,16,15,26,12.40
2017,05,16,15,27,12.20
2017,05,16,15,28,12.10
2017,05,16,15,29,12.00
2017,05,16,15,30,11.90
2017,05,16,15,31,11.80
2017,05,16,15,32,11.80
2017,05,16,15,33,11.80
2017,05,16,15,34,11.90
2017,05,16,15,35,12.00
2017,05,16,15,36,12.10
2017,05,16,15,37,12.10
2017,05,16,15,38,12.30
2017,05,16,15,39,12.40
2017,05,16,15,40,12.40
2017,05,16,15,41,12.50
2017,05,16,15,42,12.50
2017,05,16,15,43,12.50
2017,05,16,15,44,12.60
2017,05,16,15,45,12.60
2017,05,16,15,46,12.70
2017,05,16,15,47,12.70
2017,05,16,15,48,12.90
2017,05,16,15,49,12.90
2017,05,16,15,50,13.10
2017,05,16,15,51,13.20
2017,05,16,15,52,13.40
2017,05,16,15,53,13.60
2017,05,16,15,54,13.70
2017,05,16,15,55,13.80
2017,05,16,15,56,13.80
2017,05,16,15,57,13.70
2017,05,16,15,58,13.50
2017,05,16,15,59,13.40
2017,05,16,16,00,13.30
2017,05,16,16,01,13.30
2017,05,16,16,02,13.30
2017,05,16,16,03,13.30
2017,05,16,16,04,13.30
2017,05,16,16,05,13.30
2017,05,16,16,06,13.30
2017,05,16,16,07,13.30
2017,05,16,16,08,13.20
2017,05,16,16,09,13.10
2017,05,16,16,10,13.00
2017,05,16,16,11,13.00
2017,05,16,16,12,13.00
2017,05,16,16,13,12.90
2017,05,16,16,14,12.80
2017,05,16,16,15,12.80
2017,05,16,16,16,12.80
2017,05,16,16,17,12.90
2017,05,16,16,18,13.00
2017,05,16,16,19,13.10
2017,05,16,16,20,13.10
2017,05,16,16,21,13.00
2017,05,16,16,22,13.00
2017,05,16,16,23,13.10
2017,05,16,16,24,13.10
2017,05,16,16,25,13.20
2017,05,16,16,26,13.30
2017,05,16,16,27,13.30
2017,05,16,16,28,13.30
2017,05,16,16,29,13.30
2017,05,16,16,30,13.20
2017,05,16,16,31,13.20
2017,05,16,16,32,13.10
2017,05,16,16,33,13.10
2017,05,16,16,34,13.10
2017,05,16,16,35,13.10
2017,05,16,16,36,13.10
2017,05,16,16,37,13.10
2017,05,16,16,38,13.10
2017,05,16,16,39,13.00
2017,05,16,16,40,13.00
2017,05,16,16,41,13.00
2017,05,16,16,42,13.10
2017,05,16,16,43,13.10
2017,05,16,16,44,13.10
2017,05,16,16,45,13.30
2017,05,16,16,46,13.50
2017,05,16,16,47,13.70
2017,05,16,16,48,13.80
2017,05,16,16,49,13.90
2017,05,16,16,50,14.10
2017,05,16,16,51,14.20
2017,05,16,16,52,14.20
2017,05,16,16,53,14.20
2017,05,16,16,54,14.20
2017,05,16,16,55,14.20
2017,05,16,16,56,14.30
2017,05,16,16,57,14.30
2017,05,16,16,58,14.40
2017,05,16,16,59,14.50
2017,05,16,17,00,14.50
2017,05,16,17,01,14.60
2017,05,16,17,02,14.60
2017,05,16,17,03,14.50
2017,05,16,17,04,14.40
2017,05,16,17,05,14.50
2017,05,16,17,06,14.50
2017,05,16,17,07,14.60
2017,05,16,17,08,14.70
2017,05,16,17,09,14.80
2017,05,16,17,10,14.90
2017,05,16,17,11,15.00
2017,05,16,17,12,15.10
2017,05,16,17,13,15.10
2017,05,16,17,14,15.20
2017,05,16,17,15,15.20
2017,05,16,17,16,15.20
2017,05,16,17,17,15.30
2017,05,16,17,18,15.20
2017,05,16,17,19,15.10
2017,05,16,17,20,15.00
2017,05,16,17,21,14.90
2017,05,16,17,22,14.90
2017,05,16,17,23,14.90
2017,05,16,17,24,14.80
2017,05,16,17,25,14.70
2017,05,16,17,26,14.70
2017,05,16,17,27,14.80
2017,05,16,17,28,14.80
2017,05,16,17,29,14.80
2017,05,16,17,30,14.90
2017,05,16,17,31,14.90
2017,05,16,17,32,14.90
2017,05,16,17,33,15.00
2017,05,16,17,34,15.00
2017,05,16,17,35,15.10
2017,05,16,17,36,15.00
2017,05,16,17,37,15.10
2017,05,16,17,38,15.10
2017,05,16,17,39,15.10
2017,05,16,17,40,15.10
2017,05,16,17,41,15.10
2017,05,16,17,42,15.10
2017,05,16,17,43,15.20
2017,05,16,17,44,15.20
2017,05,16,17,45,15.20
2017,05,16,17,46,15.20
2017,05,16,17,47,15.20
2017,05,16,17,48,15.20
2017,05,16,17,49,15.20